owner,sensor,date,latitude,longitude,vertical_datum,wind_speed,wind_to_direction,wind_speed_of_gust,qcFlag 
TABS,ioos:station:wmo:42044:1,2012-12-01T00:00:00Z,26.1914,-97.0507,0.0,3.637320442,128.4141306,4.61,'11111222,11111222,11111222' 
TABS,ioos:station:wmo:42044:1,2012-12-01T00:30:00Z,26.1914,-97.0507,0.0,3.545645216,125.1247427,4.26,'11111222,11111222,11111222' 
TABS,ioos:station:wmo:42044:1,2012-12-01T01:00:00Z,26.1914,-97.0507,0.0,3.699689176,133.3574875,4.68,'11111222,11111222,11111222' 
TABS,ioos:station:wmo:42044:1,2012-12-01T01:30:00Z,26.1914,-97.0507,0.0,4.002811512,138.5450739,4.86,'11111222,11111222,11111222' 
TABS,ioos:station:wmo:42044:1,2012-12-01T02:00:00Z,26.1914,-97.0507,0.0,4.716990566,138.265896,5.64,'11111222,11111222,11111222' 
TABS,ioos:station:wmo:42044:1,2012-12-01T02:30:00Z,26.1914,-97.0507,0.0,4.882058992,143.4120632,5.98,'11111222,11111222,11111222' 
TABS,ioos:station:wmo:42044:1,2012-12-01T03:00:00Z,26.1914,-97.0507,0.0,4.764283787,142.5050306,5.79,'11111222,11111222,11111222' 
TABS,ioos:station:wmo:42044:1,2012-12-01T03:30:00Z,26.1914,-97.0507,0.0,4.54528327,144.491923,5.68,'11111222,11111222,11111222' 
TABS,ioos:station:wmo:42044:1,2012-12-01T04:00:00Z,26.1914,-97.0507,0.0,4.864987153,144.284637,5.94,'11111222,11111222,11111222' 
TABS,ioos:station:wmo:42044:1,2012-12-01T04:30:00Z,26.1914,-97.0507,0.0,4.616773765,148.8236906,5.93,'11111222,11111222,11111222' 
TABS,ioos:station:wmo:42044:1,2012-12-01T05:00:00Z,26.1914,-97.0507,0.0,4.625851273,148.1655806,5.56,'11111222,11111222,11111222' 
TABS,ioos:station:wmo:42044:1,2012-12-01T05:30:00Z,26.1914,-97.0507,0.0,4.512781847,144.1969501,5.72,'11111222,11111222,11111222' 
TABS,ioos:station:wmo:42044:1,2012-12-01T06:00:00Z,26.1914,-97.0507,0.0,4.682072191,142.8122291,5.98,'11111222,11111222,11111222' 
TABS,ioos:station:wmo:42044:1,2012-12-01T06:30:00Z,26.1914,-97.0507,0.0,5.053958844,140.8624498,6.33,'11111222,11111222,11111222' 
TABS,ioos:station:wmo:42044:1,2012-12-01T07:00:00Z,26.1914,-97.0507,0.0,5.114694517,141.2705132,6.24,'11111222,11111222,11111222' 
TABS,ioos:station:wmo:42044:1,2012-12-01T07:30:00Z,26.1914,-97.0507,0.0,5.330225136,139.9469988,6.68,'11111222,11111222,11111222' 
TABS,ioos:station:wmo:42044:1,2012-12-01T08:00:00Z,26.1914,-97.0507,0.0,5.193081937,141.9608122,6.53,'11111222,11111222,11111222' 
TABS,ioos:station:wmo:42044:1,2012-12-01T08:30:00Z,26.1914,-97.0507,0.0,5.116258398,141.4279401,6.31,'11111222,11111222,11111222' 
TABS,ioos:station:wmo:42044:1,2012-12-01T09:00:00Z,26.1914,-97.0507,0.0,5.077371367,141.798707,6.5,'11111222,11111222,11111222' 
TABS,ioos:station:wmo:42044:1,2012-12-01T09:30:00Z,26.1914,-97.0507,0.0,4.548021548,142.9540278,5.75,'11111222,11111222,11111222' 
TABS,ioos:station:wmo:42044:1,2012-12-01T10:00:00Z,26.1914,-97.0507,0.0,5.128508555,151.3363204,6.31,'11111222,11111222,11111222' 
TABS,ioos:station:wmo:42044:1,2012-12-01T10:30:00Z,26.1914,-97.0507,0.0,4.215032621,155.3200667,5.19,'11111222,11111222,11111222' 
TABS,ioos:station:wmo:42044:1,2012-12-01T11:00:00Z,26.1914,-97.0507,0.0,3.330975833,146.2625151,4.22,'11111222,11111222,11111222' 
TABS,ioos:station:wmo:42044:1,2012-12-01T11:30:00Z,26.1914,-97.0507,0.0,3.932696276,148.4118711,4.7,'11111222,11111222,11111222' 
TABS,ioos:station:wmo:42044:1,2012-12-01T12:00:00Z,26.1914,-97.0507,0.0,5.322593353,152.47236,6.88,'11111222,11111222,11111222' 
TABS,ioos:station:wmo:42044:1,2012-12-01T12:30:00Z,26.1914,-97.0507,0.0,4.085706793,145.571215,5.27,'11111222,11111222,11111222' 
TABS,ioos:station:wmo:42044:1,2012-12-01T13:00:00Z,26.1914,-97.0507,0.0,3.875783792,138.6614082,4.71,'11111222,11111222,11111222' 
TABS,ioos:station:wmo:42044:1,2012-12-01T13:30:00Z,26.1914,-97.0507,0.0,4.477945958,144.8195934,5.73,'11111222,11111222,11111222' 
TABS,ioos:station:wmo:42044:1,2012-12-01T14:00:00Z,26.1914,-97.0507,0.0,4.64934404,147.4723845,5.98,'11111222,11111222,11111222' 
TABS,ioos:station:wmo:42044:1,2012-12-01T14:30:00Z,26.1914,-97.0507,0.0,4.196438967,146.764639,5.05,'11111222,11111222,11111222' 
TABS,ioos:station:wmo:42044:1,2012-12-01T15:00:00Z,26.1914,-97.0507,0.0,4.079828428,146.1933715,4.87,'11111222,11111222,11111222' 
TABS,ioos:station:wmo:42044:1,2012-12-01T15:30:00Z,26.1914,-97.0507,0.0,4.478001787,149.5412241,5.63,'11111222,11111222,11111222' 
TABS,ioos:station:wmo:42044:1,2012-12-01T16:00:00Z,26.1914,-97.0507,0.0,4.387994986,146.9983159,5.28,'11111222,11111222,11111222' 
TABS,ioos:station:wmo:42044:1,2012-12-01T16:30:00Z,26.1914,-97.0507,0.0,3.831892483,148.0107515,4.67,'11111222,11111222,11111222' 
TABS,ioos:station:wmo:42044:1,2012-12-01T17:00:00Z,26.1914,-97.0507,0.0,3.907172891,148.1814309,4.83,'11111222,11111222,11111222' 
TABS,ioos:station:wmo:42044:1,2012-12-01T17:30:00Z,26.1914,-97.0507,0.0,3.944109532,145.7461478,5.07,'11111222,11111222,11111222' 
TABS,ioos:station:wmo:42044:1,2012-12-01T18:00:00Z,26.1914,-97.0507,0.0,3.752998801,140.8397943,4.6,'11111222,11111222,11111222' 
TABS,ioos:station:wmo:42044:1,2012-12-01T18:30:00Z,26.1914,-97.0507,0.0,3.839752596,135.527885,4.75,'11111222,11111222,11111222' 
TABS,ioos:station:wmo:42044:1,2012-12-01T19:00:00Z,26.1914,-97.0507,0.0,4.080882258,138.5766417,5.03,'11111222,11111222,11111222' 
TABS,ioos:station:wmo:42044:1,2012-12-01T19:30:00Z,26.1914,-97.0507,0.0,4.320891112,134.1564147,5.3,'11111222,11111222,11111222' 
TABS,ioos:station:wmo:42044:1,2012-12-01T20:00:00Z,26.1914,-97.0507,0.0,4.497999555,136.0812373,5.4,'11111222,11111222,11111222' 
TABS,ioos:station:wmo:42044:1,2012-12-01T20:30:00Z,26.1914,-97.0507,0.0,4.42648845,139.5815251,5.27,'11111222,11111222,11111222' 
TABS,ioos:station:wmo:42044:1,2012-12-01T21:00:00Z,26.1914,-97.0507,0.0,4.404588517,142.1937689,5.41,'11111222,11111222,11111222' 
TABS,ioos:station:wmo:42044:1,2012-12-01T21:30:00Z,26.1914,-97.0507,0.0,4.377956144,133.7971914,5.34,'11111222,11111222,11111222' 
TABS,ioos:station:wmo:42044:1,2012-12-01T22:00:00Z,26.1914,-97.0507,0.0,4.692600558,132.4957678,5.89,'11111222,11111222,11111222' 
TABS,ioos:station:wmo:42044:1,2012-12-01T22:30:00Z,26.1914,-97.0507,0.0,4.001362268,129.219212,5.3,'11111222,11111222,11111222' 
TABS,ioos:station:wmo:42044:1,2012-12-01T23:00:00Z,26.1914,-97.0507,0.0,4.766424236,128.6976851,5.75,'11111222,11111222,11111222' 
TABS,ioos:station:wmo:42044:1,2012-12-01T23:30:00Z,26.1914,-97.0507,0.0,5.046206496,129.209848,6.2,'11111222,11111222,11111222' 
TABS,ioos:station:wmo:42044:1,2012-12-02T00:00:00Z,26.1914,-97.0507,0.0,4.749336796,129.0181141,5.86,'11111222,11111222,11111222' 
TABS,ioos:station:wmo:42044:1,2012-12-02T00:30:00Z,26.1914,-97.0507,0.0,4.733846216,132.8602186,6.0,'11111222,11111222,11111222' 
TABS,ioos:station:wmo:42044:1,2012-12-02T01:00:00Z,26.1914,-97.0507,0.0,4.774693707,130.3282904,5.98,'11111222,11111222,11111222' 
TABS,ioos:station:wmo:42044:1,2012-12-02T01:30:00Z,26.1914,-97.0507,0.0,4.964453646,130.5891025,6.28,'11111222,11111222,11111222' 
TABS,ioos:station:wmo:42044:1,2012-12-02T02:00:00Z,26.1914,-97.0507,0.0,5.10647628,131.7456773,6.21,'11111222,11111222,11111222' 
TABS,ioos:station:wmo:42044:1,2012-12-02T02:30:00Z,26.1914,-97.0507,0.0,5.563685829,132.3779204,6.77,'11111222,11111222,11111222' 
TABS,ioos:station:wmo:42044:1,2012-12-02T03:00:00Z,26.1914,-97.0507,0.0,6.251847727,133.9634036,8.01,'11111222,11111222,11111222' 
TABS,ioos:station:wmo:42044:1,2012-12-02T03:30:00Z,26.1914,-97.0507,0.0,5.522508488,135.0736775,6.86,'11111222,11111222,11111222' 
TABS,ioos:station:wmo:42044:1,2012-12-02T04:00:00Z,26.1914,-97.0507,0.0,5.081781184,138.9098389,6.62,'11111222,11111222,11111222' 
TABS,ioos:station:wmo:42044:1,2012-12-02T04:30:00Z,26.1914,-97.0507,0.0,4.51568378,137.5132456,5.69,'11111222,11111222,11111222' 
TABS,ioos:station:wmo:42044:1,2012-12-02T05:00:00Z,26.1914,-97.0507,0.0,4.562028058,142.9294506,5.55,'11111222,11111222,11111222' 
TABS,ioos:station:wmo:42044:1,2012-12-02T05:30:00Z,26.1914,-97.0507,0.0,4.86637442,141.3404926,5.8,'11111222,11111222,11111222' 
TABS,ioos:station:wmo:42044:1,2012-12-02T06:00:00Z,26.1914,-97.0507,0.0,4.686245832,142.5435243,5.62,'11111222,11111222,11111222' 
TABS,ioos:station:wmo:42044:1,2012-12-02T06:30:00Z,26.1914,-97.0507,0.0,5.057370858,147.5986065,5.96,'11111222,11111222,11111222' 
TABS,ioos:station:wmo:42044:1,2012-12-02T07:00:00Z,26.1914,-97.0507,0.0,4.532824726,148.6246465,5.41,'11111222,11111222,11111222' 
TABS,ioos:station:wmo:42044:1,2012-12-02T07:30:00Z,26.1914,-97.0507,0.0,4.24348913,146.5349094,5.42,'11111222,11111222,11111222' 
TABS,ioos:station:wmo:42044:1,2012-12-02T08:00:00Z,26.1914,-97.0507,0.0,4.379052409,144.3865664,5.38,'11111222,11111222,11111222' 
TABS,ioos:station:wmo:42044:1,2012-12-02T08:30:00Z,26.1914,-97.0507,0.0,4.778974785,145.7449319,5.87,'11111222,11111222,11111222' 
TABS,ioos:station:wmo:42044:1,2012-12-02T09:00:00Z,26.1914,-97.0507,0.0,4.92036584,142.4317063,6.03,'11111222,11111222,11111222' 
TABS,ioos:station:wmo:42044:1,2012-12-02T09:30:00Z,26.1914,-97.0507,0.0,4.888118247,142.7318678,6.07,'11111222,11111222,11111222' 
TABS,ioos:station:wmo:42044:1,2012-12-02T10:00:00Z,26.1914,-97.0507,0.0,4.756006728,143.0340229,5.79,'11111222,11111222,11111222' 
TABS,ioos:station:wmo:42044:1,2012-12-02T10:30:00Z,26.1914,-97.0507,0.0,4.657177257,141.013861,5.66,'11111222,11111222,11111222' 
TABS,ioos:station:wmo:42044:1,2012-12-02T11:00:00Z,26.1914,-97.0507,0.0,4.498110715,139.6891478,5.61,'11111222,11111222,11111222' 
TABS,ioos:station:wmo:42044:1,2012-12-02T11:30:00Z,26.1914,-97.0507,0.0,4.191515239,148.6614374,5.2,'11111222,11111222,11111222' 
TABS,ioos:station:wmo:42044:1,2012-12-02T12:00:00Z,26.1914,-97.0507,0.0,3.984181221,149.702438,4.95,'11111222,11111222,11111222' 
TABS,ioos:station:wmo:42044:1,2012-12-02T12:30:00Z,26.1914,-97.0507,0.0,4.049753079,150.0799149,4.86,'11111222,11111222,11111222' 
TABS,ioos:station:wmo:42044:1,2012-12-02T13:00:00Z,26.1914,-97.0507,0.0,3.740761954,148.2222001,4.72,'11111222,11111222,11111222' 
TABS,ioos:station:wmo:42044:1,2012-12-02T13:30:00Z,26.1914,-97.0507,0.0,3.699256682,149.2755888,4.42,'11111222,11111222,11111222' 
TABS,ioos:station:wmo:42044:1,2012-12-02T14:00:00Z,26.1914,-97.0507,0.0,3.063070355,139.2367006,3.96,'11111222,11111222,11111222' 
TABS,ioos:station:wmo:42044:1,2012-12-02T14:30:00Z,26.1914,-97.0507,0.0,3.144010178,143.2761892,4.01,'11111222,11111222,11111222' 
TABS,ioos:station:wmo:42044:1,2012-12-02T15:00:00Z,26.1914,-97.0507,0.0,3.495211009,141.6221043,4.3,'11111222,11111222,11111222' 
TABS,ioos:station:wmo:42044:1,2012-12-02T15:30:00Z,26.1914,-97.0507,0.0,3.275622078,136.8558971,4.07,'11111222,11111222,11111222' 
TABS,ioos:station:wmo:42044:1,2012-12-02T16:00:00Z,26.1914,-97.0507,0.0,2.886243233,136.6849961,3.59,'11111222,11111222,11111222' 
TABS,ioos:station:wmo:42044:1,2012-12-02T16:30:00Z,26.1914,-97.0507,0.0,2.70174018,133.8005823,3.44,'11111222,11111222,11111222' 
TABS,ioos:station:wmo:42044:1,2012-12-02T17:00:00Z,26.1914,-97.0507,0.0,2.36326046,132.9426746,2.92,'11111222,11111222,11111222' 
TABS,ioos:station:wmo:42044:1,2012-12-02T17:30:00Z,26.1914,-97.0507,0.0,2.625509474,137.3155902,3.23,'11111222,11111222,11111222' 
TABS,ioos:station:wmo:42044:1,2012-12-02T18:00:00Z,26.1914,-97.0507,0.0,2.733056897,128.4636973,3.54,'11111222,11111222,11111222' 
TABS,ioos:station:wmo:42044:1,2012-12-02T18:30:00Z,26.1914,-97.0507,0.0,2.506351931,125.91006,3.17,'11111222,11111222,11111222' 
TABS,ioos:station:wmo:42044:1,2012-12-02T19:00:00Z,26.1914,-97.0507,0.0,2.185062928,135.5565666,2.78,'11111222,11111222,11111222' 
TABS,ioos:station:wmo:42044:1,2012-12-02T19:30:00Z,26.1914,-97.0507,0.0,2.233047245,118.631291,2.82,'11111222,11111222,11111222' 
TABS,ioos:station:wmo:42044:1,2012-12-02T20:00:00Z,26.1914,-97.0507,0.0,2.686633581,113.7030114,3.35,'11111222,11111222,11111222' 
TABS,ioos:station:wmo:42044:1,2012-12-02T20:30:00Z,26.1914,-97.0507,0.0,2.786323743,113.2529587,3.47,'11111222,11111222,11111222' 
TABS,ioos:station:wmo:42044:1,2012-12-02T21:00:00Z,26.1914,-97.0507,0.0,2.746961958,110.6784793,3.55,'11111222,11111222,11111222' 
TABS,ioos:station:wmo:42044:1,2012-12-02T21:30:00Z,26.1914,-97.0507,0.0,2.763421792,110.9932252,3.49,'11111222,11111222,11111222' 
TABS,ioos:station:wmo:42044:1,2012-12-02T22:00:00Z,26.1914,-97.0507,0.0,2.878471817,112.4671183,3.54,'11111222,11111222,11111222' 
TABS,ioos:station:wmo:42044:1,2012-12-02T22:30:00Z,26.1914,-97.0507,0.0,3.170015773,104.4311631,3.86,'11111222,11111222,11111222' 
TABS,ioos:station:wmo:42044:1,2012-12-02T23:00:00Z,26.1914,-97.0507,0.0,3.325612725,106.4190909,4.12,'11111222,11111222,11111222' 
TABS,ioos:station:wmo:42044:1,2012-12-02T23:30:00Z,26.1914,-97.0507,0.0,3.754850197,114.3811759,4.44,'11111222,11111222,11111222' 
TABS,ioos:station:wmo:42044:1,2012-12-03T00:00:00Z,26.1914,-97.0507,0.0,3.932238548,115.1316886,4.7,'11111222,11111222,11111222' 
TABS,ioos:station:wmo:42044:1,2012-12-03T00:30:00Z,26.1914,-97.0507,0.0,4.058792924,122.3199618,4.95,'11111222,11111222,11111222' 
TABS,ioos:station:wmo:42044:1,2012-12-03T01:00:00Z,26.1914,-97.0507,0.0,4.22834483,119.778847,5.11,'11111222,11111222,11111222' 
TABS,ioos:station:wmo:42044:1,2012-12-03T01:30:00Z,26.1914,-97.0507,0.0,3.770968045,115.2742676,4.91,'11111222,11111222,11111222' 
TABS,ioos:station:wmo:42044:1,2012-12-03T02:00:00Z,26.1914,-97.0507,0.0,3.403909517,112.2706368,4.15,'11111222,11111222,11111222' 
TABS,ioos:station:wmo:42044:1,2012-12-03T02:30:00Z,26.1914,-97.0507,0.0,2.814427118,108.4353266,3.41,'11111222,11111222,11111222' 
TABS,ioos:station:wmo:42044:1,2012-12-03T03:00:00Z,26.1914,-97.0507,0.0,2.952371928,117.8673596,3.6,'11111222,11111222,11111222' 
TABS,ioos:station:wmo:42044:1,2012-12-03T03:30:00Z,26.1914,-97.0507,0.0,2.47406548,126.4533757,3.27,'11111222,11111222,11111222' 
TABS,ioos:station:wmo:42044:1,2012-12-03T04:00:00Z,26.1914,-97.0507,0.0,2.497078293,120.5705972,3.08,'11111222,11111222,11111222' 
TABS,ioos:station:wmo:42044:1,2012-12-03T04:30:00Z,26.1914,-97.0507,0.0,2.342327902,132.7511895,2.93,'11111222,11111222,11111222' 
TABS,ioos:station:wmo:42044:1,2012-12-03T05:00:00Z,26.1914,-97.0507,0.0,3.182011942,135.2549613,3.78,'11111222,11111222,11111222' 
TABS,ioos:station:wmo:42044:1,2012-12-03T05:30:00Z,26.1914,-97.0507,0.0,3.330540497,135.3652512,4.03,'11111222,11111222,11111222' 
TABS,ioos:station:wmo:42044:1,2012-12-03T06:00:00Z,26.1914,-97.0507,0.0,3.464852089,134.7664572,4.03,'11111222,11111222,11111222' 
TABS,ioos:station:wmo:42044:1,2012-12-03T06:30:00Z,26.1914,-97.0507,0.0,3.046079447,143.5442146,3.68,'11111222,11111222,11111222' 
TABS,ioos:station:wmo:42044:1,2012-12-03T07:00:00Z,26.1914,-97.0507,0.0,3.793573513,149.243743,4.54,'11111222,11111222,11111222' 
TABS,ioos:station:wmo:42044:1,2012-12-03T07:30:00Z,26.1914,-97.0507,0.0,4.449235889,147.2031613,5.2,'11111222,11111222,11111222' 
TABS,ioos:station:wmo:42044:1,2012-12-03T08:00:00Z,26.1914,-97.0507,0.0,4.39605505,146.5994086,5.2,'11111222,11111222,11111222' 
TABS,ioos:station:wmo:42044:1,2012-12-03T08:30:00Z,26.1914,-97.0507,0.0,3.441932597,146.4948968,4.06,'11111222,11111222,11111222' 
TABS,ioos:station:wmo:42044:1,2012-12-03T09:00:00Z,26.1914,-97.0507,0.0,2.946794869,148.036122,3.66,'11111222,11111222,11111222' 
TABS,ioos:station:wmo:42044:1,2012-12-03T09:30:00Z,26.1914,-97.0507,0.0,2.847876402,150.5548506,3.42,'11111222,11111222,11111222' 
TABS,ioos:station:wmo:42044:1,2012-12-03T10:00:00Z,26.1914,-97.0507,0.0,3.2938731,155.6138964,3.96,'11111222,11111222,11111222' 
TABS,ioos:station:wmo:42044:1,2012-12-03T10:30:00Z,26.1914,-97.0507,0.0,3.440479618,155.0739216,4.19,'11111222,11111222,11111222' 
TABS,ioos:station:wmo:42044:1,2012-12-03T11:00:00Z,26.1914,-97.0507,0.0,3.544009029,159.519901,4.33,'11111222,11111222,11111222' 
TABS,ioos:station:wmo:42044:1,2012-12-03T11:30:00Z,26.1914,-97.0507,0.0,4.190286386,162.213907,5.09,'11111222,11111222,11111222' 
TABS,ioos:station:wmo:42044:1,2012-12-03T12:00:00Z,26.1914,-97.0507,0.0,4.392596043,162.1015334,5.37,'11111222,11111222,11111222' 
TABS,ioos:station:wmo:42044:1,2012-12-03T12:30:00Z,26.1914,-97.0507,0.0,4.14675777,156.4025343,5.06,'11111222,11111222,11111222' 
TABS,ioos:station:wmo:42044:1,2012-12-03T13:00:00Z,26.1914,-97.0507,0.0,3.915418241,155.3988743,4.84,'11111222,11111222,11111222' 
TABS,ioos:station:wmo:42044:1,2012-12-03T13:30:00Z,26.1914,-97.0507,0.0,3.97102002,156.0817271,4.76,'11111222,11111222,11111222' 
TABS,ioos:station:wmo:42044:1,2012-12-03T14:00:00Z,26.1914,-97.0507,0.0,4.104107698,155.6834052,4.9,'11111222,11111222,11111222' 
TABS,ioos:station:wmo:42044:1,2012-12-03T14:30:00Z,26.1914,-97.0507,0.0,3.628015987,156.6150441,4.39,'11111222,11111222,11111222' 
TABS,ioos:station:wmo:42044:1,2012-12-03T15:00:00Z,26.1914,-97.0507,0.0,3.752385908,159.730153,4.6,'11111222,11111222,11111222' 
TABS,ioos:station:wmo:42044:1,2012-12-03T15:30:00Z,26.1914,-97.0507,0.0,4.356007346,165.644985,5.33,'11111222,11111222,11111222' 
TABS,ioos:station:wmo:42044:1,2012-12-03T16:00:00Z,26.1914,-97.0507,0.0,4.594126685,165.1170298,5.47,'11111222,11111222,11111222' 
TABS,ioos:station:wmo:42044:1,2012-12-03T16:30:00Z,26.1914,-97.0507,0.0,4.026772901,162.9602883,4.77,'11111222,11111222,11111222' 
TABS,ioos:station:wmo:42044:1,2012-12-03T17:00:00Z,26.1914,-97.0507,0.0,4.000262491,164.7828137,4.79,'11111222,11111222,11111222' 
TABS,ioos:station:wmo:42044:1,2012-12-03T17:30:00Z,26.1914,-97.0507,0.0,3.405657058,165.0254799,4.1,'11111222,11111222,11111222' 
TABS,ioos:station:wmo:42044:1,2012-12-03T18:00:00Z,26.1914,-97.0507,0.0,3.46446244,163.3960491,4.09,'11111222,11111222,11111222' 
TABS,ioos:station:wmo:42044:1,2012-12-03T18:30:00Z,26.1914,-97.0507,0.0,4.02463663,157.194232,4.91,'11111222,11111222,11111222' 
TABS,ioos:station:wmo:42044:1,2012-12-03T19:00:00Z,26.1914,-97.0507,0.0,4.62664025,159.3717423,5.68,'11111222,11111222,11111222' 
TABS,ioos:station:wmo:42044:1,2012-12-03T19:30:00Z,26.1914,-97.0507,0.0,4.899653049,164.0066638,6.4,'11111222,11111222,11111222' 
TABS,ioos:station:wmo:42044:1,2012-12-03T20:00:00Z,26.1914,-97.0507,0.0,4.536794022,158.8086066,5.66,'11111222,11111222,11111222' 
TABS,ioos:station:wmo:42044:1,2012-12-03T20:30:00Z,26.1914,-97.0507,0.0,4.746756788,161.0690857,5.81,'11111222,11111222,11111222' 
TABS,ioos:station:wmo:42044:1,2012-12-03T21:00:00Z,26.1914,-97.0507,0.0,4.397556139,156.4081898,5.31,'11111222,11111222,11111222' 
TABS,ioos:station:wmo:42044:1,2012-12-03T21:30:00Z,26.1914,-97.0507,0.0,3.716732436,152.607905,4.86,'11111222,11111222,11111222' 
TABS,ioos:station:wmo:42044:1,2012-12-03T23:00:00Z,26.1914,-97.0507,0.0,3.6,147.0,4.5,'11111222,11111222,11111222' 
TABS,ioos:station:wmo:42044:1,2012-12-03T23:30:00Z,26.1914,-97.0507,0.0,3.2,146.0,3.9,'11111222,11111222,11111222' 
TABS,ioos:station:wmo:42044:1,2012-12-04T00:00:00Z,26.1914,-97.0507,0.0,3.022350079,127.7423026,3.63,'11111222,11111222,11111222' 
TABS,ioos:station:wmo:42044:1,2012-12-04T00:30:00Z,26.1914,-97.0507,0.0,3.184603586,142.0148585,3.95,'11111222,11111222,11111222' 
TABS,ioos:station:wmo:42044:1,2012-12-04T01:00:00Z,26.1914,-97.0507,0.0,2.796301128,132.2464452,3.5,'11111222,11111222,11111222' 
TABS,ioos:station:wmo:42044:1,2012-12-04T01:30:00Z,26.1914,-97.0507,0.0,2.873081969,132.743527,3.59,'11111222,11111222,11111222' 
TABS,ioos:station:wmo:42044:1,2012-12-04T02:00:00Z,26.1914,-97.0507,0.0,2.931381927,128.6296137,3.78,'11111222,11111222,11111222' 
TABS,ioos:station:wmo:42044:1,2012-12-04T02:30:00Z,26.1914,-97.0507,0.0,2.729578722,135.5940317,3.47,'11111222,11111222,11111222' 
TABS,ioos:station:wmo:42044:1,2012-12-04T03:00:00Z,26.1914,-97.0507,0.0,3.27482824,136.3612953,4.06,'11111222,11111222,11111222' 
TABS,ioos:station:wmo:42044:1,2012-12-04T03:30:00Z,26.1914,-97.0507,0.0,3.785828839,146.3102217,4.58,'11111222,11111222,11111222' 
TABS,ioos:station:wmo:42044:1,2012-12-04T04:00:00Z,26.1914,-97.0507,0.0,3.793481251,141.5291972,4.64,'11111222,11111222,11111222' 
TABS,ioos:station:wmo:42044:1,2012-12-04T04:30:00Z,26.1914,-97.0507,0.0,4.548988899,147.1137055,5.55,'11111222,11111222,11111222' 
TABS,ioos:station:wmo:42044:1,2012-12-04T05:00:00Z,26.1914,-97.0507,0.0,4.529017554,144.3449657,5.56,'11111222,11111222,11111222' 
TABS,ioos:station:wmo:42044:1,2012-12-04T05:30:00Z,26.1914,-97.0507,0.0,4.593528056,145.3761363,5.76,'11111222,11111222,11111222' 
TABS,ioos:station:wmo:42044:1,2012-12-04T06:00:00Z,26.1914,-97.0507,0.0,4.36286603,146.7837287,5.5,'11111222,11111222,11111222' 
TABS,ioos:station:wmo:42044:1,2012-12-04T06:30:00Z,26.1914,-97.0507,0.0,4.198880803,144.3039904,5.21,'11111222,11111222,11111222' 
TABS,ioos:station:wmo:42044:1,2012-12-04T07:00:00Z,26.1914,-97.0507,0.0,4.235953258,147.4357281,5.43,'11111222,11111222,11111222' 
TABS,ioos:station:wmo:42044:1,2012-12-04T07:30:00Z,26.1914,-97.0507,0.0,5.277016202,151.1038618,6.6,'11111222,11111222,11111222' 
TABS,ioos:station:wmo:42044:1,2012-12-04T08:00:00Z,26.1914,-97.0507,0.0,5.058319879,154.093763,6.25,'11111222,11111222,11111222' 
TABS,ioos:station:wmo:42044:1,2012-12-04T08:30:00Z,26.1914,-97.0507,0.0,4.096925677,157.3158521,4.95,'11111222,11111222,11111222' 
TABS,ioos:station:wmo:42044:1,2012-12-04T09:00:00Z,26.1914,-97.0507,0.0,3.944464476,153.175379,4.75,'11111222,11111222,11111222' 
TABS,ioos:station:wmo:42044:1,2012-12-04T09:30:00Z,26.1914,-97.0507,0.0,3.624155074,148.1959974,4.56,'11111222,11111222,11111222' 
TABS,ioos:station:wmo:42044:1,2012-12-04T10:00:00Z,26.1914,-97.0507,0.0,2.64620483,145.4694655,3.22,'11111222,11111222,11111222' 
TABS,ioos:station:wmo:42044:1,2012-12-04T10:30:00Z,26.1914,-97.0507,0.0,2.291418774,136.0612249,2.82,'11111222,11111222,11111222' 
TABS,ioos:station:wmo:42044:1,2012-12-04T11:00:00Z,26.1914,-97.0507,0.0,2.173407463,132.2030787,2.7,'11111222,11111222,11111222' 
TABS,ioos:station:wmo:42044:1,2012-12-04T11:30:00Z,26.1914,-97.0507,0.0,2.675556017,120.3030308,3.27,'11111222,11111222,11111222' 
TABS,ioos:station:wmo:42044:1,2012-12-04T12:00:00Z,26.1914,-97.0507,0.0,2.270792813,91.51449074,2.92,'11111222,11111222,11111222' 
TABS,ioos:station:wmo:42044:1,2012-12-04T12:30:00Z,26.1914,-97.0507,0.0,2.039730374,129.2304441,2.91,'11111222,11111222,11111222' 
TABS,ioos:station:wmo:42044:1,2012-12-04T13:00:00Z,26.1914,-97.0507,0.0,2.271849467,153.3224348,3.04,'11111222,11111222,11111222' 
TABS,ioos:station:wmo:42044:1,2012-12-04T13:30:00Z,26.1914,-97.0507,0.0,2.424953608,144.7372812,3.2,'11111222,11111222,11111222' 
TABS,ioos:station:wmo:42044:1,2012-12-04T14:00:00Z,26.1914,-97.0507,0.0,2.953303235,148.5707183,3.82,'11111222,11111222,11111222' 
TABS,ioos:station:wmo:42044:1,2012-12-04T14:30:00Z,26.1914,-97.0507,0.0,2.75960142,141.1783661,3.4,'11111222,11111222,11111222' 
TABS,ioos:station:wmo:42044:1,2012-12-04T15:00:00Z,26.1914,-97.0507,0.0,2.452039967,140.7930986,3.16,'11111222,11111222,11111222' 
TABS,ioos:station:wmo:42044:1,2012-12-04T15:30:00Z,26.1914,-97.0507,0.0,2.113409567,146.3854128,2.81,'11111222,11111222,11111222' 
TABS,ioos:station:wmo:42044:1,2012-12-04T16:00:00Z,26.1914,-97.0507,0.0,1.566045976,143.5694375,2.22,'11111222,11111222,11111222' 
TABS,ioos:station:wmo:42044:1,2012-12-04T16:30:00Z,26.1914,-97.0507,0.0,1.244869471,174.9308022,4.05,'11111222,11111222,11111222' 
TABS,ioos:station:wmo:42044:1,2012-12-04T17:00:00Z,26.1914,-97.0507,0.0,2.667601919,163.6713131,3.71,'11111222,11111222,11111222' 
TABS,ioos:station:wmo:42044:1,2012-12-04T17:30:00Z,26.1914,-97.0507,0.0,2.078942039,172.2598874,3.34,'11111222,11111222,11111222' 
TABS,ioos:station:wmo:42044:1,2012-12-04T18:00:00Z,26.1914,-97.0507,0.0,2.164624679,128.2467574,3.09,'11111222,11111222,11111222' 
TABS,ioos:station:wmo:42044:1,2012-12-04T18:30:00Z,26.1914,-97.0507,0.0,3.128785707,145.5483564,4.21,'11111222,11111222,11111222' 
TABS,ioos:station:wmo:42044:1,2012-12-04T19:00:00Z,26.1914,-97.0507,0.0,2.687042984,112.0789504,3.56,'11111222,11111222,11111222' 
TABS,ioos:station:wmo:42044:1,2012-12-04T19:30:00Z,26.1914,-97.0507,0.0,3.654654566,120.7758985,4.74,'11111222,11111222,11111222' 
TABS,ioos:station:wmo:42044:1,2012-12-04T20:00:00Z,26.1914,-97.0507,0.0,4.061329831,129.8058989,5.97,'11111222,11111222,11111222' 